SR6WVX Weather Reports


Display with metric or nautical units.
time (UTC)temp
F
wind
direction
speed
MPH
gust
MPH
rain 1hr
in
rain 24hr
in
rain mn
in
humidity
%
barometer
mb
20260506232411 56 0 0.0 0.0 0.20 0.36 0.00 93 1001.7
20260506231910 56 0 0.0 0.0 0.20 0.36 0.00 92 1001.7
20260506231410 56 0 0.0 0.0 0.18 0.34 0.00 92 1002.1
20260506230910 56 22 0.0 0.0 0.16 0.32 0.00 92 1001.8
20260506230410 56 22 0.0 0.0 0.12 0.28 0.00 92 1002.1
20260506225909 56 22 0.0 0.0 0.12 0.28 0.00 92 1002.2
20260506225409 56 22 0.0 0.0 0.10 0.26 0.00 92 1002.2
20260506224909 56 22 0.0 0.0 0.08 0.24 0.00 92 1001.9
20260506224409 56 22 0.0 0.0 0.06 0.22 0.00 92 1001.5
20260506223908 56 0 0.0 0.0 0.04 0.20 0.00 92 1001.4
20260506223408 57 0 0.0 0.0 0.02 0.18 0.00 92 1001.4
20260506222908 57 45 0.0 0.0 0.00 0.16 0.00 92 1001.8
20260506222408 57 67 0.0 0.0 0.00 0.16 0.00 92 1001.6
20260506221907 57 67 0.0 0.0 0.00 0.16 0.00 92 1001.5
20260506221407 57 67 0.0 0.0 0.00 0.16 0.00 92 1001.4
20260506220907 57 67 0.0 0.0 0.00 0.16 0.00 91 1001.4
20260506220407 57 67 0.0 0.0 0.00 0.16 0.00 91 1001.5
20260506215906 57 67 0.0 0.0 0.02 0.16 0.00 91 1001.5
20260506215406 57 67 0.0 0.0 0.02 0.16 0.00 91 1001.3
20260506214906 57 45 0.0 0.0 0.02 0.16 0.00 91 1001.3
20260506214405 57 45 0.0 0.0 0.02 0.16 0.00 91 1001.2
20260506213905 56 45 0.0 0.0 0.02 0.16 0.00 91 1001.3
20260506213405 56 45 0.0 0.0 0.02 0.16 0.00 91 1001.3
20260506212905 56 45 0.0 0.0 0.02 0.16 0.00 91 1001.4
20260506212404 56 45 0.0 0.0 0.02 0.16 0.00 91 1001.3
20260506211904 56 45 0.0 0.0 0.04 0.16 0.00 91 1001.3
20260506211404 57 45 0.0 0.0 0.04 0.16 0.00 91 1001.3
20260506210904 57 67 0.0 0.0 0.04 0.16 0.00 91 1001.0
20260506210403 57 67 0.0 0.0 0.02 0.14 0.00 91 1000.9
20260506205903 57 45 0.0 3.0 0.04 0.14 0.00 91 1000.7
20260506205403 57 45 0.0 0.0 0.04 0.14 0.00 91 1000.7
20260506204903 57 45 0.0 0.0 0.08 0.14 0.00 90 1000.6
20260506204402 57 337 0.0 0.0 0.08 0.14 0.00 90 1000.8
20260506203902 57 337 0.0 0.0 0.08 0.14 0.00 90 1001.0
20260506203402 57 337 0.0 0.0 0.08 0.14 0.00 90 1001.1
20260506202901 57 337 0.0 0.0 0.08 0.14 0.00 90 1001.0
20260506202401 57 0 0.0 0.0 0.06 0.12 0.00 90 1000.9
20260506201901 57 22 0.0 0.0 0.08 0.12 0.00 89 1000.6
20260506201401 57 45 0.0 0.0 0.08 0.12 0.00 89 1000.9
20260506200900 57 112 0.0 0.0 0.08 0.12 0.00 88 1001.0
20260506200400 57 112 0.0 0.0 0.06 0.10 0.00 87 1001.2
20260506195900 57 112 0.0 0.0 0.06 0.10 0.00 87 1001.3
20260506195400 57 112 0.0 0.0 0.04 0.06 0.00 87 1001.3
20260506194859 57 112 0.0 0.0 0.04 0.06 0.00 87 1001.3
20260506194359 57 112 0.0 0.0 0.04 0.06 0.00 87 1001.4
20260506193859 57 135 0.0 0.0 0.06 0.06 0.00 86 1001.7
20260506193359 57 135 0.0 0.0 0.06 0.06 0.00 86 1001.6
20260506192858 57 135 0.0 0.0 0.06 0.06 0.00 86 1001.6
20260506192358 57 135 0.0 0.0 0.04 0.04 0.00 86 1001.4
20260506191858 57 135 0.0 0.0 0.04 0.04 0.00 86 1001.4
20260506191358 57 135 0.0 0.0 0.04 0.04 0.00 86 1001.6
20260506190857 57 135 0.0 0.0 0.04 0.04 0.00 85 1001.6
20260506190357 57 90 0.0 0.0 0.04 0.04 0.00 85 1001.6
20260506185857 58 90 0.0 0.0 0.04 0.04 0.00 85 1001.4
20260506185356 58 90 0.0 0.0 0.02 0.02 0.00 83 1001.1
20260506184856 58 135 0.0 0.0 0.02 0.02 0.00 83 1001.1
20260506184356 58 135 0.0 0.0 0.02 0.02 0.00 83 1001.0
20260506183856 58 135 0.0 0.0 0.00 0.00 0.00 82 1000.9
20260506183355 58 135 0.0 0.0 0.00 0.00 0.00 82 1000.9
20260506182855 58 112 0.0 0.0 0.00 0.00 0.00 82 1000.7
20260506182355 58 157 0.0 0.0 0.00 0.00 0.00 82 1000.7
20260506181855 58 135 0.0 0.0 0.00 0.00 0.00 82 1000.4
20260506181354 58 112 0.0 0.0 0.00 0.00 0.00 82 1000.2
20260506180854 58 67 0.0 0.0 0.00 0.00 0.00 79 999.9
20260506180354 58 67 0.0 0.0 0.00 0.00 0.00 79 999.9
20260506175854 58 67 0.0 0.0 0.00 0.00 0.00 79 1000.0
20260506175353 58 67 0.0 0.0 0.00 0.00 0.00 77 1000.0
20260506174853 59 135 0.0 0.0 0.00 0.00 0.00 75 999.9
20260506174353 59 112 0.0 0.0 0.00 0.00 0.00 75 999.9
20260506173852 60 135 0.0 0.0 0.00 0.00 0.00 73 999.7
20260506173352 61 90 0.0 0.0 0.00 0.00 0.00 71 999.7
20260506172852 63 112 0.0 4.0 0.00 0.00 0.00 67 999.6
20260506172352 66 112 0.0 2.0 0.00 0.00 0.00 59 999.2
20260506171851 69 135 0.0 4.0 0.00 0.00 0.00 53 999.5
20260506171351 71 67 2.0 3.0 0.00 0.00 0.00 49 999.5
20260506170851 71 315 0.0 6.0 0.00 0.00 0.00 47 999.2
20260506170351 72 270 6.0 6.0 0.00 0.00 0.00 46 999.1
20260506165850 73 270 2.0 10.0 0.00 0.00 0.00 46 999.2
20260506165350 74 270 2.0 5.0 0.00 0.00 0.00 44 999.1
20260506164850 74 270 5.0 5.0 0.00 0.00 0.00 43 999.0
20260506164350 76 270 0.0 4.0 0.00 0.00 0.00 41 999.0
20260506163849 78 315 0.0 8.0 0.00 0.00 0.00 39 999.0
20260506163349 79 270 0.0 6.0 0.00 0.00 0.00 38 999.1
20260506162849 80 270 6.0 6.0 0.00 0.00 0.00 37 999.1
20260506162349 81 270 0.0 6.0 0.00 0.00 0.00 36 999.3
20260506161848 82 270 6.0 6.0 0.00 0.00 0.00 36 999.2
20260506161348 82 292 0.0 0.0 0.00 0.00 0.00 36 999.3
20260506160848 82 225 0.0 0.0 0.00 0.00 0.00 34 999.3
20260506160348 83 247 0.0 2.0 0.00 0.00 0.00 33 999.3
20260506155847 83 180 0.0 0.0 0.00 0.00 0.00 34 999.2
20260506155347 86 270 0.0 0.0 0.00 0.00 0.00 32 999.1
20260506154847 87 157 0.0 0.0 0.00 0.00 0.00 32 999.2
20260506154346 87 202 0.0 4.0 0.00 0.00 0.00 32 999.2
20260506153846 87 157 0.0 0.0 0.00 0.00 0.00 33 999.4
20260506153346 84 157 0.0 0.0 0.00 0.00 0.00 35 999.4
20260506152846 81 157 0.0 0.0 0.00 0.00 0.00 35 999.3
20260506152345 83 180 0.0 0.0 0.00 0.00 0.00 34 999.3
20260506151845 82 157 0.0 5.0 0.00 0.00 0.00 34 999.4
20260506151345 84 180 5.0 5.0 0.00 0.00 0.00 34 999.4
20260506150845 83 157 0.0 0.0 0.00 0.00 0.00 34 999.4
20260506150344 83 180 0.0 7.0 0.00 0.00 0.00 34 999.5
20260506145844 82 157 0.0 0.0 0.00 0.00 0.00 35 999.5
20260506145344 82 202 0.0 5.0 0.00 0.00 0.00 35 999.4
20260506144844 82 202 0.0 7.0 0.00 0.00 0.00 35 999.6
20260506144343 81 180 7.0 9.0 0.00 0.00 0.00 36 999.6
20260506143843 81 180 9.0 9.0 0.00 0.00 0.00 35 999.4
20260506143343 81 157 5.0 6.0 0.00 0.00 0.00 35 999.5
20260506142842 81 202 0.0 9.0 0.00 0.00 0.00 35 999.5
20260506142342 81 157 9.0 9.0 0.00 0.00 0.00 35 999.7
20260506141842 81 247 6.0 9.0 0.00 0.00 0.00 36 999.8
20260506141342 81 157 9.0 9.0 0.00 0.00 0.00 36 999.8
20260506140841 80 67 1.0 1.0 0.00 0.00 0.00 35 1000.0
20260506140341 81 135 0.0 3.0 0.00 0.00 0.00 35 999.8
20260506135841 81 247 3.0 4.0 0.00 0.00 0.00 37 1000.0
20260506135341 80 157 4.0 8.0 0.00 0.00 0.00 40 1000.0
20260506134840 79 180 8.0 8.0 0.00 0.00 0.00 41 999.9
20260506134340 78 225 0.0 0.0 0.00 0.00 0.00 40 1000.0
20260506133840 79 157 0.0 0.0 0.00 0.00 0.00 40 999.9
20260506133340 79 225 0.0 8.0 0.00 0.00 0.00 39 1000.1
20260506132839 79 225 0.0 6.0 0.00 0.00 0.00 40 1000.0
20260506132339 79 225 0.0 7.0 0.00 0.00 0.00 40 1000.0
20260506131839 79 157 7.0 7.0 0.00 0.00 0.00 39 1000.0
20260506131338 80 180 0.0 0.0 0.00 0.00 0.00 39 1000.0
20260506130838 80 112 0.0 0.0 0.00 0.00 0.00 41 1000.1
20260506130338 77 202 0.0 10.0 0.00 0.00 0.00 42 1000.2
20260506125838 77 180 10.0 10.0 0.00 0.00 0.00 42 1000.2
20260506125337 77 180 0.0 0.0 0.00 0.00 0.00 41 1000.2
20260506124837 77 202 0.0 2.0 0.00 0.00 0.00 42 1000.1
20260506124337 78 180 2.0 2.0 0.00 0.00 0.00 41 1000.1
20260506123837 78 202 0.0 0.0 0.00 0.00 0.00 42 1000.2
20260506123336 78 180 0.0 6.0 0.00 0.00 0.00 41 1000.2
20260506122836 79 180 4.0 6.0 0.00 0.00 0.00 40 1000.3
20260506122336 79 202 6.0 6.0 0.00 0.00 0.00 41 1000.2
20260506121836 79 225 0.0 0.0 0.00 0.00 0.00 41 1000.2
20260506121335 78 202 0.0 0.0 0.00 0.00 0.00 42 1000.2
20260506120835 79 180 0.0 6.0 0.00 0.00 0.00 40 1000.2
20260506120335 79 180 6.0 6.0 0.00 0.00 0.00 41 1000.1
20260506115834 78 225 0.0 0.0 0.00 0.00 0.00 42 1000.1
20260506115334 78 157 0.0 0.0 0.00 0.00 0.00 42 1000.1
20260506114834 78 135 0.0 0.0 0.00 0.00 0.00 42 1000.1
20260506114334 79 135 0.0 0.0 0.00 0.00 0.00 41 1000.2
20260506113833 79 157 0.0 0.0 0.00 0.00 0.00 41 1000.3
20260506113333 79 90 0.0 0.0 0.00 0.00 0.00 42 1000.2
20260506112833 77 112 0.0 2.0 0.00 0.00 0.00 44 1000.2
20260506112333 75 135 0.0 2.0 0.00 0.00 0.00 44 1000.3
20260506111832 75 135 0.0 3.0 0.00 0.00 0.00 45 1000.3
20260506111332 76 157 3.0 3.0 0.00 0.00 0.00 44 1000.3
20260506110832 76 180 0.0 0.0 0.00 0.00 0.00 45 1000.3
20260506110332 75 112 0.0 0.0 0.00 0.00 0.00 46 1000.3
20260506105831 75 202 0.0 6.0 0.00 0.00 0.00 45 1000.3
20260506105331 75 180 6.0 6.0 0.00 0.00 0.00 45 1000.3
20260506104831 76 157 0.0 0.0 0.00 0.00 0.00 45 1000.2
20260506104331 76 157 0.0 0.0 0.00 0.00 0.00 46 1000.0
20260506103830 76 22 0.0 4.0 0.00 0.00 0.00 46 1000.0
20260506103330 76 157 4.0 4.0 0.00 0.00 0.00 45 1000.0
20260506102830 75 180 0.0 12.0 0.00 0.00 0.00 47 1000.0
20260506102329 74 202 12.0 12.0 0.00 0.00 0.00 47 1000.0
20260506101829 73 157 4.0 4.0 0.00 0.00 0.00 47 1000.0
20260506101329 74 157 2.0 7.0 0.00 0.00 0.00 46 1000.1
20260506100829 75 135 0.0 0.0 0.00 0.00 0.00 43 1000.0
20260506100328 76 157 0.0 0.0 0.00 0.00 0.00 42 1000.0
20260506095828 78 157 0.0 9.0 0.00 0.00 0.00 41 1000.0
20260506095328 77 225 9.0 9.0 0.00 0.00 0.00 43 999.8
20260506094828 76 202 0.0 6.0 0.00 0.00 0.00 43 999.9
20260506094327 76 225 0.0 7.0 0.00 0.00 0.00 43 1000.0
20260506093827 76 247 7.0 7.0 0.00 0.00 0.00 44 999.9
20260506093327 75 157 0.0 11.0 0.00 0.00 0.00 44 999.8
20260506092827 75 157 8.0 12.0 0.00 0.00 0.00 43 999.9
20260506092326 76 157 12.0 12.0 0.00 0.00 0.00 43 999.9
20260506091826 77 180 8.0 8.0 0.00 0.00 0.00 44 999.8
20260506091326 77 180 0.0 1.0 0.00 0.00 0.00 43 999.9
20260506090825 77 202 0.0 6.0 0.00 0.00 0.00 43 999.8
20260506090325 78 225 0.0 0.0 0.00 0.00 0.00 42 999.9
20260506085825 77 247 0.0 0.0 0.00 0.00 0.00 44 999.7
20260506085325 77 180 0.0 5.0 0.00 0.00 0.00 43 999.7
20260506084824 78 157 0.0 12.0 0.00 0.00 0.00 42 999.7
20260506084324 78 135 12.0 12.0 0.00 0.00 0.00 44 999.7
20260506083824 78 157 0.0 8.0 0.00 0.00 0.00 44 999.6
20260506083324 78 225 0.0 0.0 0.00 0.00 0.00 48 999.7
20260506082823 78 157 0.0 0.0 0.00 0.00 0.00 48 999.9
20260506082323 78 135 0.0 10.0 0.00 0.00 0.00 46 999.8
20260506081823 79 157 10.0 10.0 0.00 0.00 0.00 46 1000.0
20260506081323 80 180 6.0 6.0 0.00 0.00 0.00 46 1000.0
20260506080822 79 202 0.0 0.0 0.00 0.00 0.00 47 999.8
20260506080322 79 225 0.0 0.0 0.00 0.00 0.00 50 999.9
20260506073320 71 202 0.0 0.0 0.00 0.00 0.00 55 999.9
20260506072820 71 180 0.0 0.0 0.00 0.00 0.00 56 1000.1
20260506072320 71 180 0.0 0.0 0.00 0.00 0.00 53 999.9
20260506071820 74 180 0.0 3.0 0.00 0.00 0.00 51 999.8
20260506071319 75 157 3.0 3.0 0.00 0.00 0.00 51 999.8
20260506070819 75 225 0.0 0.0 0.00 0.00 0.00 50 999.7
20260506070319 76 157 0.0 3.0 0.00 0.00 0.00 52 999.9
20260506062317 73 247 0.0 0.0 0.00 0.00 0.00 56 999.7
20260506061817 73 202 0.0 0.0 0.00 0.00 0.00 58 999.7
20260506061316 72 180 0.0 0.0 0.00 0.00 0.00 59 999.7
20260506060816 71 157 0.0 0.0 0.00 0.00 0.00 64 999.9
20260506060316 69 157 0.0 0.0 0.00 0.00 0.00 64 999.7
20260506051313 55 247 0.0 0.0 0.00 0.00 0.00 89 999.4
20260506050813 54 247 0.0 0.0 0.00 0.00 0.00 89 999.4
20260506050313 53 247 0.0 0.0 0.00 0.00 0.00 90 999.4
20260506044812 52 270 0.0 0.0 0.00 0.00 0.00 89 999.2
20260506044311 51 270 0.0 0.0 0.00 0.00 0.00 89 999.2
20260506043811 52 270 0.0 0.0 0.00 0.00 0.00 89 999.1
20260506043311 52 270 0.0 0.0 0.00 0.00 0.00 89 998.9
20260506042811 52 270 0.0 0.0 0.00 0.00 0.00 89 999.1
20260506042310 52 225 0.0 0.0 0.00 0.00 0.00 89 999.1
20260506041810 52 225 0.0 0.0 0.00 0.00 0.00 90 999.1
20260506041310 52 225 0.0 0.0 0.00 0.00 0.00 90 999.1
20260506040810 52 225 0.0 0.0 0.00 0.00 0.00 90 999.1
20260506040309 51 225 0.0 0.0 0.00 0.00 0.00 90 999.4
20260506035809 51 225 0.0 0.0 0.00 0.00 0.00 90 999.2
20260506035309 50 225 0.0 0.0 0.00 0.00 0.00 90 999.3
20260506034809 50 225 0.0 0.0 0.00 0.00 0.00 90 999.3
20260506034308 50 225 0.0 0.0 0.00 0.00 0.00 90 999.2
20260506033808 49 225 0.0 0.0 0.00 0.00 0.00 90 999.1
20260506033308 49 225 0.0 0.0 0.00 0.00 0.00 90 999.0
20260506032808 48 225 0.0 0.0 0.00 0.00 0.00 89 998.9
20260506032307 48 225 0.0 0.0 0.00 0.00 0.00 89 999.0
20260506031807 48 225 0.0 0.0 0.00 0.00 0.00 89 998.7
20260506031307 48 225 0.0 0.0 0.00 0.00 0.00 88 998.4
20260506030806 48 225 0.0 0.0 0.00 0.00 0.00 88 998.5
20260506030306 48 225 0.0 0.0 0.00 0.00 0.00 88 998.5
20260506025806 48 225 0.0 0.0 0.00 0.00 0.00 88 998.5
20260506025306 48 225 0.0 0.0 0.00 0.00 0.00 88 998.5
20260506024805 48 225 0.0 0.0 0.00 0.00 0.00 88 998.6
20260506024306 48 225 0.0 0.0 0.00 0.00 0.00 87 998.6
20260506023805 48 225 0.0 0.0 0.00 0.00 0.00 87 998.7
20260506023305 49 225 0.0 0.0 0.00 0.00 0.00 87 998.7
20260506022804 49 225 0.0 0.0 0.00 0.00 0.00 87 998.9
20260506022306 50 225 0.0 0.0 0.00 0.00 0.00 87 999.1
20260506021804 50 225 0.0 0.0 0.00 0.00 0.00 86 999.1
20260506021304 51 225 0.0 0.0 0.00 0.00 0.00 86 999.2
20260506020803 51 225 0.0 0.0 0.00 0.00 0.00 86 999.4
20260506020303 51 225 0.0 0.0 0.00 0.00 0.00 86 999.4
20260506015803 51 225 0.0 0.0 0.00 0.00 0.00 86 999.6
20260506015305 51 225 0.0 0.0 0.00 0.00 0.00 86 999.8
20260506014802 51 247 0.0 0.0 0.00 0.00 0.00 86 999.5
20260506014302 51 247 0.0 0.0 0.00 0.00 0.00 86 999.4
20260506013802 52 247 0.0 0.0 0.00 0.00 0.00 86 999.4
20260506013301 52 247 0.0 0.0 0.00 0.00 0.00 86 999.5
20260506012801 52 225 0.0 0.0 0.00 0.00 0.00 86 999.4
20260506012301 52 225 0.0 0.0 0.00 0.00 0.00 86 999.4
20260506011801 52 202 0.0 0.0 0.00 0.00 0.00 86 999.6
20260506011300 52 202 0.0 0.0 0.00 0.00 0.00 86 999.5
20260506010800 52 202 0.0 0.0 0.00 0.00 0.00 86 999.4
20260506010300 52 202 0.0 0.0 0.00 0.00 0.00 85 999.4
20260506005800 52 202 0.0 0.0 0.00 0.00 0.00 85 999.4
20260506005259 52 202 0.0 0.0 0.00 0.00 0.00 85 999.3
20260506004759 52 202 0.0 0.0 0.00 0.00 0.00 85 999.3
20260506004259 52 202 0.0 0.0 0.00 0.00 0.00 84 999.5
20260506003759 53 202 0.0 0.0 0.00 0.00 0.00 84 999.5
20260506003258 53 202 0.0 0.0 0.00 0.00 0.00 84 999.6
20260506002758 53 202 0.0 0.0 0.00 0.00 0.00 85 999.6
20260506002258 53 202 0.0 0.0 0.00 0.00 0.00 85 999.5
20260506001757 53 202 0.0 0.0 0.00 0.00 0.00 85 999.4
20260506001257 53 202 0.0 0.0 0.00 0.00 0.00 85 999.3
20260506000757 53 202 0.0 0.0 0.00 0.00 0.00 85 999.4
20260506000257 52 202 0.0 0.0 0.00 0.00 0.00 85 999.6
20260505235756 52 202 0.0 0.0 0.00 0.00 0.00 85 999.7
20260505235256 51 270 0.0 0.0 0.00 0.00 0.00 84 999.6
20260505234756 51 270 0.0 0.0 0.00 0.00 0.00 84 999.5
20260505234256 51 270 0.0 0.0 0.00 0.00 0.00 83 999.5
20260505233755 51 270 0.0 0.0 0.00 0.00 0.00 82 999.4
20260505233255 51 270 0.0 0.0 0.00 0.00 0.00 82 999.4